Regional Weather Roundup
Issued by NWS

Home | Current Version | Previous Version | Text Only | Print | Product List | Glossary Off
Versions: 1 2 3 4 5 6 7 8 9 10 11 12 13 14 15 16 17 18 19 20 21 22 23 24 25 26 27 28 29 30 31 32 33 34 35 36 37 38 39 40 41 42 43 44 45 46 47 48 49 50

000
ASUS43 KOAX 272210
RWRNE

WEATHER ROUNDUP FOR NEBRASKA
NATIONAL WEATHER SERVICE OMAHA NE
400 PM CST FRI FEB 27 2015

NOTES: SATELLITE DATA IS BEING USED TO AUGMENT CLOUD COVER ABOVE
       12000 FEET.
       "FAIR" INDICATES FEW OR NO CLOUDS BELOW 12,000 FEET WITH NO
       SIGNIFICANT WEATHER AND/OR OBSTRUCTIONS TO VISIBILITY.

  * THESE STATIONS DO NOT REPORT WEATHER SUCH AS RAIN...SNOW OR FOG.

NEZ001>004-019>022-054>056-272300-
NEBRASKA PANHANDLE

CITY           SKY/WX    TMP DP  RH WIND       PRES   REMARKS
SCOTTSBLUFF    CLOUDY    23   8  52 S21G30    30.01F WCI   8
ALLIANCE       CLOUDY    20   8  60 S25G32    30.04F WCI   2
CHADRON        CLOUDY    25  11  55 S22G28    30.05F WCI  10
KIMBALL        CLOUDY    17   9  70 S22       29.95S WCI   0
SIDNEY         CLOUDY    18   8  65 S20G28    30.04S WCI   2
$$

NEZ057>060-069>072-079>082-272300-
SOUTHWEST NEBRASKA

CITY           SKY/WX    TMP DP  RH WIND       PRES   REMARKS
NORTH PLATTE   MOSUNNY   24   2  38 SW17      30.23F WCI  11
IMPERIAL         N/A     20   7  57 S20       30.18F WCI   4
LEXINGTON      MOSUNNY   24  -2  31 S14G20    30.31S WCI  12
MCCOOK         CLOUDY    23   5  46 SE14      30.28F WCI  11
OGALLALA       CLOUDY    21   8  56 S16       30.17F WCI   7
$$

NEZ005>010-023>029-035>040-094-272300-
NORTH CENTRAL NEBRASKA

CITY           SKY/WX    TMP DP  RH WIND       PRES   REMARKS
VALENTINE      SUNNY     26   1  34 S16       30.20F WCI  14
AINSWORTH      SUNNY     25  -4  28 S17       30.23F WCI  11
BROKEN BOW     SUNNY     24  -2  32 S12G21    30.28F WCI  13
O`NEILL        SUNNY     25  -4  28 S10       30.33F WCI  15
ORD            SUNNY     23  -7  26 S12       30.33F WCI  12
THEDFORD       SUNNY     26   2  37 S14G21    30.21F WCI  14
$$

NEZ041-046>049-061>064-073>077-083>087-272300-
SOUTH CENTRAL NEBRASKA

CITY           SKY/WX    TMP DP  RH WIND       PRES   REMARKS
GRAND ISLAND   SUNNY     22  -3  33 S9        30.40F WCI  12
AURORA         MOSUNNY   23  -3  32 S9        30.40F WCI  13
HASTINGS       SUNNY     22  -6  29 S9        30.38F WCI  12
HEBRON         PTSUNNY   21  -4  33 S7        30.47R WCI  12
HOLDREGE       SUNNY     21  -6  29 S10       30.34S WCI  10
KEARNEY *      SUNNY     23  -6  28 SE8G17    30.35F WCI  14
YORK           SUNNY     23  -2  33 S8        30.43F WCI  14
$$

NEZ011>018-030>034-042>045-272300-
NORTHEAST NEBRASKA

CITY           SKY/WX    TMP DP  RH WIND       PRES   REMARKS
NORFOLK        SUNNY     22   0  38 S9        30.42F WCI  12
ALBION         SUNNY     23  -6  28 S12       30.39S WCI  12
BLAIR          SUNNY     19   4  50 CALM      30.49S
COLUMBUS *     SUNNY     19  -2  38 S7        30.46F WCI  10
FREMONT        SUNNY     21   4  47 SE6       30.50S WCI  13
TEKAMAH        SUNNY     17   5  59 SE8       30.53F WCI   7
WAYNE          SUNNY     21   3  47 S8        30.46S WCI  11
$$

NEZ050>053-065>068-078-088>093-272300-
SOUTHEAST NEBRASKA

CITY           SKY/WX    TMP DP  RH WIND       PRES   REMARKS
LINCOLN        SUNNY     20  -2  38 CALM      30.50F
OMAHA EPPLEY   MOSUNNY   19   2  47 CALM      30.53F
BEATRICE       CLOUDY    20  -1  40 E5        30.49S WCI  13
FALLS CITY     MOSUNNY   19  -4  36 SE6       30.53F WCI  11
NEBRASKA CITY  SUNNY     19  -8  29 SE3       30.51F
PLATTSMOUTH    SUNNY     19  -2  39 E5        30.51S WCI  12
$$

NEZ044-045-051>053-067-272300-
OMAHA AREA

CITY           SKY/WX    TMP DP  RH WIND       PRES   REMARKS
OMAHA EPPLEY   MOSUNNY   19   2  47 CALM      30.53F
BLAIR          SUNNY     19   4  50 CALM      30.49S
FREMONT        SUNNY     21   4  47 SE6       30.50S WCI  13
MILLARD        SUNNY     20   1  42 S5        30.52S WCI  14
OFFUTT AFB     SUNNY     20   1  43 S3        30.52F
PLATTSMOUTH    SUNNY     19  -2  39 E5        30.51S WCI  12
WAHOO          FAIR      20  -1  39 CALM      30.49F
$$


USA.gov is the U.S. government's official web portal to all federal, state and local government web resources and services.